Regional Weather Roundup
Issued by NWS Green Bay, WI

Home | Current Version | Previous Version | Graphics & Text | Print | Product List | Glossary Off
Versions: 1 2 3 4 5 6 7 8 9 10 11 12 13 14 15 16 17 18 19 20 21 22 23 24 25 26 27 28 29 30 31 32 33 34 35 36 37 38 39 40 41 42 43 44 45 46 47 48 49 50

000
ASUS43 KGRB 200611
RWRGRB

NORTH-CENTRAL AND NORTHEAST WISCONSIN REGIONAL WEATHER ROUNDUP
NATIONAL WEATHER SERVICE GREEN BAY WI
1200 AM CST MON NOV 20 2017

WIZ005-009-010>012-018-019-200700-
NORTH CENTRAL WISCONSIN

CITY           SKY/WX    TMP DP  RH WIND       PRES   REMARKS
IRONWOOD       CLOUDY   N/A N/A N/A CALM      29.79S
MANITOWISH WTR PTCLDY    15  15 100 CALM      29.78S
ARBOR VITAE    CLOUDY    19  17  89 CALM      29.79S
EAGLE RIVER    CLEAR     13  13  98 CALM      29.79S
LAND O LAKES   CLOUDY    12  10  91 CALM      29.81R
RHINELANDER    PTCLDY   N/A N/A N/A SW5       29.80F
PHILLIPS       CLEAR     21  17  85 CALM      29.78F
ANTIGO         CLOUDY    22  17  81 S3        29.82F
TOMAHAWK       CLOUDY    17  15  91 CALM      29.81S
MERRILL        CLEAR     20  16  85 CALM      29.82F
$$

WIZ013-073-200700-
NORTHEAST WISCONSIN

CITY           SKY/WX    TMP DP  RH WIND       PRES   REMARKS
IRON MOUNTAIN  CLEAR     20  13  74 CALM      29.82S
MARINETTE      CLEAR     26  18  71 SW5       29.89F
OCONTO         CLEAR     22  17  78 CALM      29.88F
$$

WIZ017-030-035>037-045-200700-
CENTRAL WISCONSIN

CITY           SKY/WX    TMP DP  RH WIND       PRES   REMARKS
MEDFORD        CLEAR     23  20  86 S6        29.80S
WAUSAU         CLEAR     26  18  71 CALM      29.82F
MOSINEE        CLEAR     23  19  86 S7        29.84
MARSHFIELD     CLEAR     24  18  77 SW5       29.82F
WISC RAPIDS    CLEAR     27  21  78 SW7       29.87F
STEVENS POINT  CLEAR     22  18  86 S5        29.86S
WAUPACA        PTCLDY    27  20  75 CALM      29.88F
SHAWANO        CLEAR     28  18  68 CALM      29.87F
CLINTONVILLE   CLOUDY    27  18  69 SW6       29.87F
WAUTOMA        CLEAR     21  17  84 CALM      29.90F
$$

WIZ038-039-048-051-200700-
FOX VALLEY

CITY           SKY/WX    TMP DP  RH WIND       PRES   REMARKS
NWS GREEN BAY  PTCLDY    29  22  75 SW7       29.89F
APPLETON       CLOUDY    28  19  69 SW10      29.87F
OSHKOSH        CLOUDY    30  22  72 SW12      29.89F
FOND DU LAC    PTCLDY    29  20  69 SW13      29.91F
$$

WIZ022-050-052-200700-
EAST CENTRAL WISCONSIN

CITY           SKY/WX    TMP DP  RH WIND       PRES   REMARKS
EPHRAIM        CLOUDY    32  19  58 W9        29.87S
WASHINGTON ISL CLOUDY    32  20  61 W10       29.87F
STURGEON BAY   CLEAR     29  19  66 SW8       29.89F
MANITOWOC      CLOUDY    29  21  72 SW6       29.92F
SHEBOYGAN      CLOUDY    31  23  72 SW10      29.92F
$$

LMZ563-521-522-541>543-200700-
LAKESHORE

STATION/POSITION TIME  TEMP    WIND        PRES    VSBY  WAVE
                       AIR SEA DIR/SP/G                  HT/PER
                 (UTC) (F)     (DEG/KT/KT) (MB)    (MI)  (FT/S)
SHEBOYGAN LKSHOR 0600   32     240/ 15/ 17 1013.9F
KEWAUNEE LKSHORE 0542          200/  7/  8 1012.0F
NORTHPORT PIER   0540   33     250/  4/  9 1011.9F
N MID LAKE BUOY  0550   35 48  250/ 16/ 21 1012.7F         3/ 4
SISTER BAY LKSHO 0604   35     270/ 15/ 17   N/A
MENOMINEE LKSHOR 0542          210/  6/  9 1011.7F
$$




USA.gov is the U.S. government's official web portal to all federal, state and local government web resources and services.